Regional Weather Roundup
Issued by NWS

Home | Current Version | Previous Version | Graphics & Text | Print | Product List | Glossary On
Versions: 1 2 3 4 5 6 7 8 9 10 11 12 13 14 15 16 17 18 19 20 21 22 23 24 25 26 27
000
ASUS45 KBOU 261007
RWRCO

WEATHER ROUNDUP FOR COLORADO
NATIONAL WEATHER SERVICE DENVER/BOULDER CO
400 AM MDT THU MAY 26 2016

NOTE: "FAIR" INDICATES FEW OR NO CLOUDS BELOW 12000 FEET WITH NO
SIGNIFICANT WEATHER AND/OR OBSTRUCTIONS TO VISIBILITY.

COZ001>005-013-030-031-261100-
...NORTHWEST COLORADO...

CITY           SKY/WX    TMP DP  RH WIND       PRES   REMARKS
CRAIG          FAIR      34  30  85 CALM      30.06S
HAYDEN         CLOUDY    36  27  69 SE8       30.06S
MEEKER         FAIR      37  28  70 E5        30.04F
MOUNT WERNER   NOT AVBL
STEAMBOAT SPGS MOCLDY    34  28  78 CALM      30.07S
WALDEN         FAIR      30  23  74 S5        30.11F WCI  25
$$

COZ006>008-011-261100-
...WEST CENTRAL VALLEYS...

CITY           SKY/WX    TMP DP  RH WIND       PRES   REMARKS
GRAND JUNCTION FAIR      47  27  45 N8        29.92R
MONTROSE       FAIR      52  20  28 S8        29.97F
EAGLE          FAIR      37  19  48 CALM      30.07F
RIFLE          FAIR      39  28  64 S3        29.98F
DELTA          FAIR      54  19  26 NE9       29.95S
NUCLA          FAIR      52  18  25 E10       29.98F
$$

COZ017>023-064>068-261100-
...SOUTHWEST COLORADO...

CITY           SKY/WX    TMP DP  RH WIND       PRES   REMARKS
DURANGO        CLOUDY    48  26  42 W5        30.02F
CORTEZ         FAIR      42  23  46 CALM      29.98F
PAGOSA SPRINGS FAIR      47  31  52 NW6       30.09F
TELLURIDE      CLOUDY    42  17  36 S13G24    30.14R
WOLF CREEK PAS FAIR      28  23  80 SW17      30.26F WCI  16
$$

COZ009-010-012-014-032>034-037-058>063-261100-
...CENTRAL COLORADO...

CITY           SKY/WX    TMP DP  RH WIND       PRES   REMARKS
ASPEN          FAIR      37  19  48 SW7       30.06F
BUENA VISTA    FAIR      36  15  41 CALM      30.10S
COPPER MTN     NOT AVBL
BERTHOUD PASS  FAIR      28  19  69 SE12G17   30.26F WCI  18
COTTONWOOD PAS MOCLDY    45   3  18 CALM      30.15F
GUNNISON       FAIR      36  18  48 NE6       30.11F
KREMMLING      FAIR      30  23  74 CALM      30.11R
LEADVILLE      FAIR      24  13  62 CALM      30.14F
MONARCH PASS   CLOUDY    32  18  55 W9        30.35F WCI  24
SALIDA         FAIR      45  15  29 NW3       30.15F
SUNLIGHT       CLOUDY    37  19  48 CALM      30.21F
WILKERSON PASS CLOUDY    36  18  48 SE7       30.24F
$$

COZ069>075-261100-
...SAN LUIS VALLEY/SANGRE DE CRISTO MOUNTAINS...

CITY           SKY/WX    TMP DP  RH WIND       PRES   REMARKS
ALAMOSA        FAIR      41  26  55 NE6       30.07F
LA VETA PASS   FAIR      37  27  65 S7        30.16S
SAGUACHE       FAIR      43  21  42 NW12      30.08F
$$

COZ035-036-038>040-261100-
...NORTHERN COLORADO FRONT RANGE...

CITY           SKY/WX    TMP DP  RH WIND       PRES   REMARKS
DENVER INTL AP MOCLDY    49  42  77 W5        30.02S
DMNS CITY PARK   N/A     47  41  80 E9        30.01S
AURORA         MOCLDY    44  41  88 S6        30.03S
FRONT RANGE AP NOT AVBL
ERIE MUNI ARPT FAIR      44  41  91 SW3       30.01S
BOULDER MUN AP FAIR      54  37  54 W3        30.01S
CENTENNIAL     FAIR      45  40  82 S6        30.03S
BROOMFIELD     FAIR      52  37  58 NW7       30.03S
FORT COLLINS   FAIR      46  39  76 S6        30.01S
LONGMONT       FAIR      44  39  82 CALM      30.02F
$$

COZ041-046-047-076>085-087-088-261100-
...PIKES PEAK/PALMER DIVIDE AND SOUTHERN FOOTHILLS...

CITY           SKY/WX    TMP DP  RH WIND       PRES   REMARKS
COLO. SPRINGS  MOCLDY    52  40  63 NW15      30.03F
A. F. ACADEMY  MOCLDY    48  41  76 N10       30.05R
SCHRIEVER AFB  NOT AVBL
ELLICOTT       FAIR     N/A N/A N/A E18       29.97F
FALCON         MOCLDY    48  40  72 N10       30.05F
FORT CARSON    FAIR      53  42  66 N17       30.01R
LIMON          MOCLDY    51  41  68 VRB3      29.99F
MONUMENT HILL  CLOUDY    41  39  93 CALM      30.10R
TRINIDAD       FAIR      43  23  45 W10       29.95S
$$

COZ042>045-048>051-090-091-261100-
...NORTHEAST COLORADO...

CITY           SKY/WX    TMP DP  RH WIND       PRES   REMARKS
GREELEY ARPT   FAIR      46  41  81 CALM      30.00S
AKRON          FAIR      53  39  59 SE3       29.97R
BURLINGTON     MOCLDY    56  46  69 E10       29.94F
WRAY           FAIR      46  46 100 CALM      29.94S
STERLING       FAIR      45  43  93 SW3       29.94R
HOLYOKE        NOT AVBL
FORT MORGAN    CLOUDY    48  42  79 NW6       29.99S
$$

COZ086-089-092>099-261100-
...SOUTHEAST COLORADO...

CITY           SKY/WX    TMP DP  RH WIND       PRES   REMARKS
PUEBLO         FAIR      58  41  53 NE9       29.93S
LA JUNTA       FAIR      54  47  77 N8        29.91R
LAMAR          CLOUDY    61  58  90 NE9       29.85R
SPRINGFIELD      N/A     48  24  39 NW8       29.84F
$$




USA.gov is the U.S. government's official web portal to all federal, state and local government web resources and services.